Time,TemperatureF,DewpointF,PressureIn,WindDirection,WindDirectionDegrees,WindSpeedMPH,WindSpeedGustMPH,Humidity,HourlyPrecipIn,Conditions,Clouds,dailyrainin,SolarRadiationWatts/m^2,SoftwareType,DateUTC
2013-02-03 00:01:00,30.0,14.0,-100.00,WNW,283,4.0,8.0,50,0.00,,,0.00,0.000000,,2013-02-03 07:01:00,
2013-02-03 00:32:00,29.0,15.0,-100.00,South,171,0.0,6.0,55,0.00,,,0.00,0.000000,,2013-02-03 07:32:00,
2013-02-03 00:42:00,29.0,15.0,-100.00,South,171,0.0,6.0,55,0.00,,,0.00,0.000000,,2013-02-03 07:42:00,
2013-02-03 00:52:00,29.0,15.0,-100.00,South,171,0.0,6.0,55,0.00,,,0.00,0.000000,,2013-02-03 07:52:00,
2013-02-03 01:01:00,29.0,15.0,-100.00,South,171,0.0,6.0,55,0.00,,,0.00,0.000000,,2013-02-03 08:01:00,
2013-02-03 01:32:00,27.0,15.0,-100.00,SW,226,6.0,9.0,59,0.00,,,-99.99,0.000000,,2013-02-03 08:32:00,
2013-02-03 01:42:00,27.0,15.0,-100.00,SW,226,6.0,9.0,59,0.00,,,-99.99,0.000000,,2013-02-03 08:42:00,
2013-02-03 01:52:00,27.0,15.0,-100.00,SW,226,6.0,9.0,59,0.00,,,-99.99,0.000000,,2013-02-03 08:52:00,
2013-02-03 02:02:00,27.0,15.0,-100.00,SW,226,6.0,9.0,59,0.00,,,-99.99,0.000000,,2013-02-03 09:02:00,
2013-02-03 02:32:00,27.0,15.0,-100.00,West,270,0.0,8.0,60,0.00,,,0.00,0.000000,,2013-02-03 09:32:00,
2013-02-03 02:42:00,27.0,15.0,-100.00,West,270,0.0,8.0,60,0.00,,,0.00,0.000000,,2013-02-03 09:42:00,
2013-02-03 02:52:00,27.0,15.0,-100.00,West,270,0.0,8.0,60,0.00,,,0.00,0.000000,,2013-02-03 09:52:00,
2013-02-03 03:01:00,27.0,15.0,-100.00,West,270,0.0,8.0,60,0.00,,,0.00,0.000000,,2013-02-03 10:01:00,
2013-02-03 03:32:00,26.0,15.0,-100.00,SW,228,5.0,8.0,62,0.00,,,0.00,0.000000,,2013-02-03 10:32:00,
2013-02-03 03:42:00,26.0,15.0,-100.00,SW,228,5.0,8.0,62,0.00,,,0.00,0.000000,,2013-02-03 10:42:00,
2013-02-03 03:52:00,26.0,15.0,-100.00,SW,228,5.0,8.0,62,0.00,,,0.00,0.000000,,2013-02-03 10:52:00,
2013-02-03 04:01:00,26.0,15.0,-100.00,SW,228,5.0,8.0,62,0.00,,,0.00,0.000000,,2013-02-03 11:01:00,
2013-02-03 04:32:00,26.0,14.0,-100.00,West,261,3.0,6.0,59,0.00,,,0.00,0.000000,,2013-02-03 11:32:00,
2013-02-03 04:42:00,26.0,14.0,-100.00,West,261,3.0,6.0,59,0.00,,,0.00,0.000000,,2013-02-03 11:42:00,
2013-02-03 04:52:00,26.0,14.0,-100.00,West,261,3.0,6.0,59,0.00,,,0.00,0.000000,,2013-02-03 11:52:00,
2013-02-03 05:02:00,26.0,14.0,-100.00,West,261,3.0,6.0,59,0.00,,,0.00,0.000000,,2013-02-03 12:02:00,
2013-02-03 05:32:00,25.0,14.0,-100.00,WNW,298,2.0,5.0,62,0.00,,,0.00,0.000000,,2013-02-03 12:32:00,
2013-02-03 05:42:00,25.0,14.0,-100.00,WNW,298,2.0,5.0,62,0.00,,,0.00,0.000000,,2013-02-03 12:42:00,
2013-02-03 05:53:00,25.0,14.0,-100.00,WNW,298,2.0,5.0,62,0.00,,,0.00,0.000000,,2013-02-03 12:53:00,
2013-02-03 06:02:00,25.0,14.0,-100.00,WNW,298,2.0,5.0,62,0.00,,,0.00,0.000000,,2013-02-03 13:02:00,
2013-02-03 06:32:00,27.0,15.0,-100.00,NNE,19,4.0,7.0,59,0.00,,,0.00,0.000000,,2013-02-03 13:32:00,
2013-02-03 06:42:00,27.0,15.0,-100.00,NNE,19,4.0,7.0,59,0.00,,,0.00,0.000000,,2013-02-03 13:42:00,
2013-02-03 06:52:00,27.0,15.0,-100.00,NNE,19,4.0,7.0,59,0.00,,,0.00,0.000000,,2013-02-03 13:52:00,
2013-02-03 07:02:00,27.0,15.0,-100.00,NNE,19,4.0,7.0,59,0.00,,,0.00,0.000000,,2013-02-03 14:02:00,
2013-02-03 07:32:00,26.0,14.0,-100.00,NNW,337,2.0,12.0,61,0.00,,,-99.99,0.000000,,2013-02-03 14:32:00,
2013-02-03 07:42:00,26.0,14.0,-100.00,NNW,337,2.0,12.0,61,0.00,,,-99.99,0.000000,,2013-02-03 14:42:00,
2013-02-03 07:52:00,26.0,14.0,-100.00,NNW,337,2.0,12.0,61,0.00,,,-99.99,0.000000,,2013-02-03 14:52:00,
2013-02-03 08:02:00,26.0,14.0,-100.00,NNW,337,2.0,12.0,61,0.00,,,-99.99,0.000000,,2013-02-03 15:02:00,
2013-02-03 08:33:00,27.0,15.0,-100.00,WNW,291,2.0,8.0,59,0.00,,,0.00,1.000000,,2013-02-03 15:33:00,
2013-02-03 08:42:00,27.0,15.0,-100.00,WNW,291,2.0,8.0,59,0.00,,,0.00,1.000000,,2013-02-03 15:42:00,
2013-02-03 08:52:00,27.0,15.0,-100.00,WNW,291,2.0,8.0,59,0.00,,,0.00,1.000000,,2013-02-03 15:52:00,
2013-02-03 09:02:00,27.0,15.0,-100.00,WNW,291,2.0,8.0,59,0.00,,,0.00,1.000000,,2013-02-03 16:02:00,
2013-02-03 09:33:00,28.0,15.0,-100.00,East,93,3.0,9.0,58,0.00,,,0.00,59.000000,,2013-02-03 16:33:00,
2013-02-03 09:42:00,28.0,15.0,-100.00,East,93,3.0,9.0,58,0.00,,,0.00,59.000000,,2013-02-03 16:42:00,
2013-02-03 09:52:00,28.0,15.0,-100.00,East,93,3.0,9.0,58,0.00,,,0.00,59.000000,,2013-02-03 16:52:00,
2013-02-03 10:02:00,28.0,15.0,-100.00,East,93,3.0,9.0,58,0.00,,,0.00,59.000000,,2013-02-03 17:02:00,
2013-02-03 10:32:00,30.0,15.0,-100.00,SW,219,5.0,9.0,54,0.00,,,-99.99,112.000000,,2013-02-03 17:32:00,
2013-02-03 10:42:00,30.0,15.0,-100.00,SW,219,5.0,9.0,54,0.00,,,-99.99,112.000000,,2013-02-03 17:42:00,
2013-02-03 10:52:00,30.0,15.0,-100.00,SW,219,5.0,9.0,54,0.00,,,-99.99,112.000000,,2013-02-03 17:52:00,
2013-02-03 11:02:00,30.0,15.0,-100.00,SW,219,5.0,9.0,54,0.00,,,-99.99,112.000000,,2013-02-03 18:02:00,
2013-02-03 11:23:00,34.0,17.0,-100.00,North,355,0.0,9.0,50,0.00,,,0.00,179.000000,,2013-02-03 18:23:00,
2013-02-03 11:33:00,34.0,17.0,-100.00,North,355,0.0,9.0,50,0.00,,,0.00,179.000000,,2013-02-03 18:33:00,
2013-02-03 11:42:00,34.0,17.0,-100.00,North,355,0.0,9.0,50,0.00,,,0.00,179.000000,,2013-02-03 18:42:00,
2013-02-03 11:52:00,34.0,17.0,-100.00,North,355,0.0,9.0,50,0.00,,,0.00,179.000000,,2013-02-03 18:52:00,
2013-02-03 12:01:00,34.0,17.0,-100.00,North,355,0.0,9.0,50,0.00,,,0.00,179.000000,,2013-02-03 19:01:00,
2013-02-03 12:32:00,37.0,16.0,-100.00,SW,235,3.0,6.0,42,0.00,,,-99.99,229.000000,,2013-02-03 19:32:00,
2013-02-03 12:42:00,37.0,16.0,-100.00,SW,235,3.0,6.0,42,0.00,,,-99.99,229.000000,,2013-02-03 19:42:00,
2013-02-03 12:52:00,37.0,16.0,-100.00,SW,235,3.0,6.0,42,0.00,,,-99.99,229.000000,,2013-02-03 19:52:00,
2013-02-03 13:01:00,37.0,16.0,-100.00,SW,235,3.0,6.0,42,0.00,,,-99.99,229.000000,,2013-02-03 20:01:00,
2013-02-03 13:33:00,36.0,20.0,-100.00,ENE,72,4.0,10.0,51,0.00,,,0.00,363.000000,,2013-02-03 20:33:00,
2013-02-03 13:42:00,36.0,20.0,-100.00,ENE,72,4.0,10.0,51,0.00,,,0.00,363.000000,,2013-02-03 20:42:00,
2013-02-03 13:52:00,36.0,20.0,-100.00,ENE,72,4.0,10.0,51,0.00,,,0.00,363.000000,,2013-02-03 20:52:00,
2013-02-03 14:02:00,36.0,20.0,-100.00,ENE,72,4.0,10.0,51,0.00,,,0.00,363.000000,,2013-02-03 21:02:00,
2013-02-03 14:33:00,45.0,18.0,-100.00,SSE,159,6.0,9.0,33,0.00,,,0.00,534.000000,,2013-02-03 21:33:00,
2013-02-03 14:42:00,45.0,18.0,-100.00,SSE,159,6.0,9.0,33,0.00,,,0.00,534.000000,,2013-02-03 21:42:00,
2013-02-03 14:52:00,45.0,18.0,-100.00,SSE,159,6.0,9.0,33,0.00,,,0.00,534.000000,,2013-02-03 21:52:00,
2013-02-03 15:01:00,45.0,18.0,-100.00,SSE,159,6.0,9.0,33,0.00,,,0.00,534.000000,,2013-02-03 22:01:00,
2013-02-03 15:32:00,40.0,13.0,-100.00,East,81,5.0,10.0,33,0.00,,,0.00,379.000000,,2013-02-03 22:32:00,
2013-02-03 15:42:00,40.0,13.0,-100.00,East,81,5.0,10.0,33,0.00,,,0.00,379.000000,,2013-02-03 22:42:00,
2013-02-03 15:52:00,40.0,13.0,-100.00,East,81,5.0,10.0,33,0.00,,,0.00,379.000000,,2013-02-03 22:52:00,
2013-02-03 16:01:00,40.0,13.0,-100.00,East,81,5.0,10.0,33,0.00,,,0.00,379.000000,,2013-02-03 23:01:00,
2013-02-03 16:32:00,39.0,14.0,-100.00,NW,304,0.0,6.0,36,0.00,,,0.00,158.000000,,2013-02-03 23:32:00,
2013-02-03 16:42:00,39.0,14.0,-100.00,NW,304,0.0,6.0,36,0.00,,,0.00,158.000000,,2013-02-03 23:42:00,
2013-02-03 16:52:00,39.0,14.0,-100.00,NW,304,0.0,6.0,36,0.00,,,0.00,158.000000,,2013-02-03 23:52:00,
2013-02-03 17:01:00,39.0,14.0,-100.00,NW,304,0.0,6.0,36,0.00,,,0.00,158.000000,,2013-02-04 00:01:00,
2013-02-03 17:32:00,39.0,14.0,-100.00,WSW,245,2.0,4.0,36,0.00,,,0.00,55.000000,,2013-02-04 00:32:00,
2013-02-03 17:42:00,39.0,14.0,-100.00,WSW,245,2.0,4.0,36,0.00,,,0.00,55.000000,,2013-02-04 00:42:00,
2013-02-03 17:52:00,39.0,14.0,-100.00,WSW,245,2.0,4.0,36,0.00,,,0.00,55.000000,,2013-02-04 00:52:00,
2013-02-03 18:01:00,39.0,14.0,-100.00,WSW,245,2.0,4.0,36,0.00,,,0.00,55.000000,,2013-02-04 01:01:00,
2013-02-03 18:21:00,34.0,13.0,-100.00,SW,227,7.0,10.0,42,0.00,,,0.00,10.000000,,2013-02-04 01:21:00,
2013-02-03 18:32:00,34.0,13.0,-100.00,SW,227,7.0,10.0,42,0.00,,,0.00,10.000000,,2013-02-04 01:32:00,
2013-02-03 18:42:00,34.0,13.0,-100.00,SW,227,7.0,10.0,42,0.00,,,0.00,10.000000,,2013-02-04 01:42:00,
2013-02-03 18:52:00,34.0,13.0,-100.00,SW,227,7.0,10.0,42,0.00,,,0.00,10.000000,,2013-02-04 01:52:00,
2013-02-03 19:01:00,34.0,13.0,-100.00,SW,227,7.0,10.0,42,0.00,,,0.00,10.000000,,2013-02-04 02:01:00,
2013-02-03 19:22:00,33.0,12.0,-100.00,West,271,2.0,9.0,41,0.00,,,0.00,0.000000,,2013-02-04 02:22:00,
2013-02-03 19:32:00,33.0,12.0,-100.00,West,271,2.0,9.0,41,0.00,,,0.00,0.000000,,2013-02-04 02:32:00,
2013-02-03 19:42:00,33.0,12.0,-100.00,West,271,2.0,9.0,41,0.00,,,0.00,0.000000,,2013-02-04 02:42:00,
2013-02-03 19:52:00,33.0,12.0,-100.00,West,271,2.0,9.0,41,0.00,,,0.00,0.000000,,2013-02-04 02:52:00,
2013-02-03 20:01:00,33.0,12.0,-100.00,West,271,2.0,9.0,41,0.00,,,0.00,0.000000,,2013-02-04 03:01:00,
2013-02-03 20:32:00,32.0,16.0,-100.00,WSW,251,2.0,8.0,52,0.00,,,0.00,0.000000,,2013-02-04 03:32:00,
2013-02-03 20:42:00,32.0,16.0,-100.00,WSW,251,2.0,8.0,52,0.00,,,0.00,0.000000,,2013-02-04 03:42:00,
2013-02-03 20:52:00,32.0,16.0,-100.00,WSW,251,2.0,8.0,52,0.00,,,0.00,0.000000,,2013-02-04 03:52:00,
2013-02-03 21:01:00,32.0,16.0,-100.00,WSW,251,2.0,8.0,52,0.00,,,0.00,0.000000,,2013-02-04 04:01:00,
2013-02-03 21:03:00,32.0,16.0,-100.00,WSW,239,4.0,8.0,51,0.00,,,0.00,0.000000,,2013-02-04 04:03:00,
2013-02-03 21:32:00,32.0,16.0,-100.00,WSW,239,4.0,8.0,51,0.00,,,0.00,0.000000,,2013-02-04 04:32:00,
2013-02-03 21:42:00,32.0,16.0,-100.00,WSW,239,4.0,8.0,51,0.00,,,0.00,0.000000,,2013-02-04 04:42:00,
2013-02-03 21:52:00,32.0,16.0,-100.00,WSW,239,4.0,8.0,51,0.00,,,0.00,0.000000,,2013-02-04 04:52:00,
2013-02-03 22:22:00,32.0,17.0,-100.00,SSE,167,2.0,8.0,53,0.00,,,0.00,0.000000,,2013-02-04 05:22:00,
2013-02-03 22:33:00,32.0,17.0,-100.00,SSE,167,2.0,8.0,53,0.00,,,0.00,0.000000,,2013-02-04 05:33:00,
2013-02-03 22:42:00,32.0,17.0,-100.00,SSE,167,2.0,8.0,53,0.00,,,0.00,0.000000,,2013-02-04 05:42:00,
2013-02-03 22:52:00,32.0,17.0,-100.00,SSE,167,2.0,8.0,53,0.00,,,0.00,0.000000,,2013-02-04 05:52:00,
2013-02-03 23:01:00,32.0,17.0,-100.00,SSE,167,2.0,8.0,53,0.00,,,0.00,0.000000,,2013-02-04 06:01:00,
2013-02-03 23:21:00,33.0,15.0,-100.00,South,170,3.0,7.0,48,0.00,,,0.00,0.000000,,2013-02-04 06:21:00,
2013-02-03 23:32:00,33.0,15.0,-100.00,South,170,3.0,7.0,48,0.00,,,0.00,0.000000,,2013-02-04 06:32:00,
2013-02-03 23:42:00,33.0,15.0,-100.00,South,170,3.0,7.0,48,0.00,,,0.00,0.000000,,2013-02-04 06:42:00,
2013-02-03 23:52:00,33.0,15.0,-100.00,South,170,3.0,7.0,48,0.00,,,0.00,0.000000,,2013-02-04 06:52:00,